Waarnemingen

Advertentie
Mijn weer
Eindhoven, Nederland (6370): temperatuur & dauwpunt: 14.08.2017 00:00:00 - 20.08.2017 00:00:00 (CEST)Eindhoven, Nederland (6370): temperatuur 5cm: 14.08.2017 00:00:00 - 20.08.2017 00:00:00 (CEST)Eindhoven, Nederland (6370): windsnelheid & windstoten: 14.08.2017 00:00:00 - 20.08.2017 00:00:00 (CEST)Eindhoven, Nederland (6370): windrichting: 14.08.2017 00:00:00 - 20.08.2017 00:00:00 (CEST)Eindhoven, Nederland (6370): luchtdruk: 14.08.2017 00:00:00 - 20.08.2017 00:00:00 (CEST)Eindhoven, Nederland (6370): zicht: 14.08.2017 00:00:00 - 20.08.2017 00:00:00 (CEST)Eindhoven, Nederland (6370): neerslag: 14.08.2017 00:00:00 - 20.08.2017 00:00:00 (CEST)
Datum & Tijd tt [°C] td [°C] tt 5cm [°C] ff [km/u] ff [kn] fx [km/u] fx [kn] dd ppp [hPa] vv [km] rr [mm]
20.08.2017 00:00:00 13,1 10,3 12,0 15 8 18 10 ZW 1019,6 10 0,0
19.08.2017 23:00:00 13,0 11,0 11,8 8 4 14 8 ZW 1019,5 10 0,0
19.08.2017 22:00:00 15,1 10,4 14,1 11 6 29 16 W 1019,3 10 0,0
19.08.2017 21:00:00 13,9 10,0 11,5 5 3 14 8 ZZW 1018,9 10 0,0
19.08.2017 20:00:00 17,6 10,4 17,2 11 6 22 12 W 1018,5 10 0,0
19.08.2017 19:00:00 18,7 9,6 18,7 16 9 32 18 W 1018,2 10 0,0
19.08.2017 18:00:00 19,3 10,8 19,8 16 9 29 16 W 1018,0 10 0,0
19.08.2017 17:00:00 19,0 11,1 19,9 22 12 36 19 W 1017,9 10 0,0
19.08.2017 16:00:00 18,6 13,4 19,6 13 7 36 19 WZW 1017,6 10 0,0
19.08.2017 15:00:00 16,2 13,4 17,0 9 5 29 16 W 1017,5 10 1,2
19.08.2017 14:00:00 14,8 12,4 14,7 18 10 40 21 WNW 1017,2 10 0,2
19.08.2017 13:00:00 16,9 12,6 17,2 16 9 32 18 WZW 1016,4 10 0,0
19.08.2017 12:00:00 15,7 12,7 15,8 28 15 40 21 ZW 1016,2 10 0,0
19.08.2017 11:00:00 14,5 12,7 14,0 21 11 36 19 WZW 1016,0 7 0,7
19.08.2017 10:00:00 15,3 12,4 16,0 28 15 40 21 ZW 1015,3 10 0,0
19.08.2017 09:00:00 13,8 11,7 13,9 26 14 43 23 ZZW 1015,0 10 0,0
19.08.2017 08:00:00 13,0 10,9 12,6 24 13 40 21 ZZW 1014,5 10 0,1
19.08.2017 07:00:00 12,8 10,5 12,3 22 12 36 19 ZZW 1014,0 10 0,0
19.08.2017 06:00:00 12,4 10,4 11,6 22 12 36 19 ZZW 1013,8 10 0,0
19.08.2017 05:00:00 12,4 10,6 11,6 21 11 29 16 ZZW 1013,6 10 0,0
19.08.2017 04:00:00 12,4 10,4 11,3 16 9 25 14 ZZW 1013,9 10 0,0
19.08.2017 03:00:00 12,5 10,1 11,3 15 8 25 14 ZZW 1014,1 10 0,0
19.08.2017 02:00:00 12,5 10,0 11,4 15 8 25 14 ZZW 1014,0 10 0,0
19.08.2017 01:00:00 12,1 10,1 10,5 13 7 18 10 ZZW 1013,8 10 0,0
19.08.2017 00:00:00 11,0 9,4 8,4 5 3 14 8 WZW 1013,7 10 0,0
18.08.2017 23:00:00 13,3 10,2 11,7 11 6 22 12 WZW 1013,5 10 0,0
18.08.2017 22:00:00 14,4 10,6 13,1 15 8 29 16 WZW 1013,0 10 0,0
18.08.2017 21:00:00 16,5 12,8 15,6 16 9 29 16 WZW 1012,1 10 0,0
18.08.2017 20:00:00 16,8 14,5 16,4 15 8 32 18 ZW 1011,3 10 2,1
18.08.2017 19:00:00 19,5 15,2 19,3 18 10 29 16 ZZW 1010,9 10 0,0
18.08.2017 18:00:00 20,1 16,2 20,0 15 8 25 14 ZZW 1011,2 10 0,0
18.08.2017 17:00:00 19,8 16,7 20,5 16 9 25 14 ZZW 1011,3 10 0,0
18.08.2017 16:00:00 18,4 16,4 18,6 18 10 29 16 ZZW 1011,6 10 0,1
18.08.2017 15:00:00 19,1 17,3 19,3 16 9 32 18 ZW 1011,8 10 0,0
18.08.2017 14:00:00 20,0 17,1 20,1 21 11 29 16 ZW 1011,5 10 0,0
18.08.2017 13:00:00 20,2 17,3 20,9 18 10 29 16 Z 1011,7 10 0,0
18.08.2017 12:00:00 19,4 16,6 20,3 13 7 25 14 Z 1011,7 10 0,1
18.08.2017 11:00:00 18,0 17,3 18,1 15 8 25 14 ZZO 1012,3 10 0,6
18.08.2017 10:00:00 17,9 17,0 18,2 15 8 29 16 ZZW 1012,9 10 0,4
18.08.2017 09:00:00 17,7 16,4 17,6 13 7 22 12 ZZW 1013,1 10 0,0
18.08.2017 08:00:00 17,0 16,1 16,6 13 7 18 10 Z 1013,1 10 0,0
18.08.2017 07:00:00 16,2 15,4 15,4 9 5 14 8 Z 1012,6 10 0,0
18.08.2017 06:00:00 15,9 14,6 15,4 9 5 18 10 ZZW 1013,3 10 0,0
18.08.2017 05:00:00 16,6 15,3 16,2 11 6 18 10 ZW 1012,9 10 0,0
18.08.2017 04:00:00 16,6 15,2 15,8 11 6 14 8 ZZW 1013,5 10 0,0
18.08.2017 03:00:00 16,8 15,0 16,1 15 8 25 14 ZZW 1013,5 10 0,0
18.08.2017 02:00:00 16,6 15,0 15,7 15 8 29 16 ZZW 1014,0 10 0,0
18.08.2017 01:00:00 17,6 16,8 16,3 11 6 25 14 ZZW 1014,1 10 0,0
18.08.2017 00:00:00 17,5 16,7 16,3 11 6 18 10 ZZW 1014,3 10 0,0
17.08.2017 23:00:00 18,1 16,8 17,4 15 8 25 14 ZZW 1014,3 10 0,0
17.08.2017 22:00:00 18,6 17,2 17,8 15 8 25 14 ZZW 1014,4 10 0,0
17.08.2017 21:00:00 19,1 17,5 18,3 15 8 29 16 ZZW 1014,1 10 0,0
17.08.2017 20:00:00 20,1 17,6 19,8 16 9 33 18 ZZW 1014,1 10 0,0
17.08.2017 19:00:00 20,0 17,4 20,2 21 11 32 18 ZZW 1014,0 10 0,0
17.08.2017 18:00:00 20,3 16,9 20,5 22 12 32 18 ZZW 1014,5 10 0,0
17.08.2017 17:00:00 19,9 16,9 20,0 9 5 18 10 Z 1014,7 10 0,0
17.08.2017 16:00:00 18,9 17,0 18,6 16 9 32 18 ZW 1014,8 10 0,0
17.08.2017 15:00:00 19,4 16,2 19,6 24 13 36 19 ZW 1014,8 10 0,0
17.08.2017 14:00:00 18,9 16,6 19,2 24 13 47 25 ZW 1014,8 10 0,0
17.08.2017 13:00:00 20,4 15,5 20,2 18 10 47 25 ZZW 1014,2 10 0,1
17.08.2017 12:00:00 20,3 15,4 20,1 15 8 25 14 ZZW 1014,5 10 -
17.08.2017 11:00:00 21,0 16,0 - 13 7 22 12 ZZW 1014,6 10 -
17.08.2017 10:00:00 19,4 15,6 19,0 13 7 22 12 Z 1014,7 10 0,0
17.08.2017 09:00:00 18,3 15,1 17,8 13 7 18 10 Z 1015,1 10 0,0
17.08.2017 08:00:00 17,5 14,8 16,8 11 6 22 12 ZZO 1015,2 10 0,0
17.08.2017 07:00:00 17,0 14,8 15,9 11 6 22 12 ZZO 1015,3 10 0,0
17.08.2017 06:00:00 15,7 14,4 14,6 9 5 14 8 ZZO 1015,8 10 0,0
17.08.2017 05:00:00 15,0 14,3 13,3 11 6 14 8 ZO 1016,3 8 0,0
17.08.2017 04:00:00 13,5 13,5 10,0 4 2 4 2 - 1017,2 9 0,0
17.08.2017 03:00:00 13,3 13,2 10,7 4 2 7 4 Z 1017,3 8 0,0
17.08.2017 02:00:00 13,7 13,6 9,9 4 2 4 2 - 1018,1 10 0,0
17.08.2017 01:00:00 14,3 14,2 11,7 4 2 7 4 - 1018,4 8 0,0
17.08.2017 00:00:00 15,0 14,5 11,9 5 3 7 4 WZW 1019,1 10 0,0
16.08.2017 23:00:00 15,9 15,0 12,9 4 2 4 2 - 1019,3 10 0,0
16.08.2017 22:00:00 17,2 15,1 14,4 4 2 4 2 - 1020,0 10 0,0
16.08.2017 21:00:00 18,5 15,3 17,0 2 1 4 2 - 1019,7 10 0,0
16.08.2017 20:00:00 21,3 16,1 20,8 5 3 11 6 ZZW 1019,7 10 0,0
16.08.2017 19:00:00 22,6 14,5 22,2 8 4 14 8 Z 1019,6 10 0,0
16.08.2017 18:00:00 23,0 15,5 22,8 8 4 14 8 Z 1019,9 10 0,0
16.08.2017 17:00:00 23,3 13,8 24,5 8 4 18 10 Z 1019,9 10 0,0
16.08.2017 16:00:00 23,7 13,0 24,9 4 2 14 8 - 1020,2 10 0,0
16.08.2017 15:00:00 22,6 14,6 23,8 5 3 22 12 - 1020,8 10 0,0
16.08.2017 14:00:00 22,8 14,2 24,9 11 6 18 10 ZW 1021,2 10 0,0
16.08.2017 13:00:00 21,7 15,4 22,8 11 6 18 10 ZZW 1021,5 10 0,0
16.08.2017 12:00:00 21,3 16,0 21,5 11 6 22 12 ZW 1021,6 10 0,0
16.08.2017 11:00:00 20,7 16,3 22,2 9 5 18 10 Z 1021,8 10 0,0
16.08.2017 10:00:00 19,5 15,9 20,6 9 5 14 8 - 1021,6 10 0,0
16.08.2017 09:00:00 17,9 16,1 18,1 8 4 11 6 ZZW 1021,4 5 0,0
16.08.2017 08:00:00 15,9 15,8 15,6 9 5 11 6 ZZW 1021,1 3,7 0,0
16.08.2017 07:00:00 13,0 13,0 9,8 4 2 7 4 - 1020,8 1,8 0,0
16.08.2017 06:00:00 12,2 12,0 9,2 4 2 7 4 ZZO 1020,4 1,8 0,0
16.08.2017 05:00:00 12,2 12,0 9,9 2 1 7 4 Z 1020,1 0,6 0,0
16.08.2017 04:00:00 12,4 12,3 9,6 2 1 7 4 - 1019,9 0,7 0,0
16.08.2017 03:00:00 14,1 14,0 10,6 5 3 4 2 ZW 1019,5 0,6 0,0
16.08.2017 02:00:00 14,2 14,1 11,8 5 3 11 6 ZW 1019,6 1,5 0,0
16.08.2017 01:00:00 15,1 14,8 14,2 9 5 11 6 ZW 1019,5 5 0,0
16.08.2017 00:00:00 17,0 16,0 16,3 8 4 18 10 W 1018,7 10 0,0
15.08.2017 23:00:00 17,9 16,7 17,1 9 5 14 8 W 1018,1 10 0,0
15.08.2017 22:00:00 18,2 17,2 17,1 8 4 11 6 W 1017,7 10 0,0
15.08.2017 21:00:00 19,0 17,4 18,4 8 4 14 8 W 1016,6 10 0,0
15.08.2017 20:00:00 19,6 17,5 19,4 11 6 32 18 NW 1015,8 10 0,0
15.08.2017 19:00:00 21,7 19,8 21,7 9 5 14 8 ZW 1014,5 10 0,0
15.08.2017 18:00:00 20,7 19,7 20,9 9 5 18 10 Z 1014,6 10 0,3
15.08.2017 17:00:00 20,4 18,8 20,2 8 4 14 8 W 1014,6 1,7 4,8
15.08.2017 16:00:00 21,6 18,3 21,4 13 7 22 12 WZW 1013,8 10 0,1
15.08.2017 15:00:00 23,5 17,6 23,7 11 6 22 12 ZZW 1013,8 10 0,0
15.08.2017 14:00:00 24,1 17,2 25,8 4 2 11 6 - 1013,2 10 0,0
15.08.2017 13:00:00 22,3 17,2 24,4 8 4 14 8 O 1013,7 10 0,0
15.08.2017 12:00:00 18,9 16,4 19,5 8 4 14 8 OZO 1013,9 10 0,5
15.08.2017 11:00:00 16,9 15,6 16,7 5 3 14 8 O 1015,0 10 1,1
15.08.2017 10:00:00 17,6 15,0 17,5 2 1 14 8 - 1015,5 10 0,0
15.08.2017 09:00:00 17,7 15,0 17,1 2 1 11 6 - 1014,7 10 0,0
15.08.2017 08:00:00 17,2 14,2 15,3 8 4 11 6 ZO 1013,5 10 0,0
15.08.2017 07:00:00 13,9 13,6 10,5 2 1 7 4 - 1013,9 9 0,0
15.08.2017 06:00:00 14,2 13,8 10,3 2 1 4 2 - 1014,4 8 0,0
15.08.2017 05:00:00 14,7 14,5 11,4 4 2 4 2 - 1014,7 10 0,0
15.08.2017 04:00:00 14,4 14,4 10,3 2 1 4 2 Z 1014,8 9 0,0
15.08.2017 03:00:00 14,5 14,4 11,1 2 1 4 2 Z 1015,0 6 0,0
15.08.2017 02:00:00 15,7 14,4 12,7 2 1 7 4 O 1015,4 10 0,0
15.08.2017 01:00:00 15,9 14,6 13,9 8 4 14 8 ZW 1015,8 10 0,0
15.08.2017 00:00:00 15,5 14,1 12,4 2 1 4 2 - 1015,8 10 0,0
14.08.2017 23:00:00 16,8 14,4 13,5 4 2 7 4 - 1016,1 10 0,0
14.08.2017 22:00:00 18,8 15,1 15,1 2 1 7 4 - 1016,4 10 0,0
14.08.2017 21:00:00 22,4 14,4 18,9 5 3 11 6 O 1016,1 10 0,0
14.08.2017 20:00:00 24,4 14,1 23,7 8 4 14 8 OZO 1016,1 10 0,0
14.08.2017 19:00:00 25,0 14,2 25,4 9 5 25 14 OZO 1016,4 10 0,0
14.08.2017 18:00:00 25,6 12,8 27,3 9 5 22 12 Z 1016,7 10 0,0
14.08.2017 17:00:00 25,5 14,0 26,0 11 6 22 12 ZZO 1017,2 10 0,0
14.08.2017 16:00:00 25,6 12,4 28,7 11 6 25 14 Z 1017,7 10 0,0
14.08.2017 15:00:00 25,1 13,3 26,3 9 5 25 14 ZZO 1018,1 10 0,0
14.08.2017 14:00:00 24,6 13,3 26,7 11 6 25 14 ZZO 1018,8 10 0,0
14.08.2017 13:00:00 23,0 13,6 25,2 5 3 22 12 OZO 1019,4 10 0,0
14.08.2017 12:00:00 21,8 13,9 24,8 11 6 18 10 OZO 1019,8 10 0,0
14.08.2017 11:00:00 20,3 14,5 20,7 9 5 18 10 O 1020,2 10 0,0
14.08.2017 10:00:00 18,7 14,2 19,6 8 4 11 6 O 1020,4 10 0,0
14.08.2017 09:00:00 16,5 13,3 17,1 8 4 14 8 OZO 1020,7 10 0,0
14.08.2017 08:00:00 14,8 12,9 14,0 5 3 11 6 O 1020,5 8 0,0
14.08.2017 07:00:00 11,7 11,3 7,6 4 2 7 4 O 1020,5 6 0,0
14.08.2017 06:00:00 11,1 10,7 8,5 4 2 4 2 O 1020,3 7 0,0
14.08.2017 05:00:00 11,9 11,6 8,1 5 3 7 4 O 1020,6 10 0,0
14.08.2017 04:00:00 13,1 11,4 10,4 5 3 11 6 O 1020,9 10 0,0
14.08.2017 03:00:00 14,7 12,2 11,3 5 3 11 6 OZO 1021,2 10 0,0
14.08.2017 02:00:00 13,3 12,1 10,5 2 1 11 6 - 1021,5 10 0,0
14.08.2017 01:00:00 15,4 12,7 11,8 5 3 11 6 O 1021,7 10 0,0
14.08.2017 00:00:00 13,0 12,8 10,0 0 0 4 2 N 1021,9 10 0,0

tt = temperatuur
td = dauwpunt
tt 5cm = temperatuur 5cm
ff = windsnelheid
fx = windstoten
dd = windrichting
ppp = luchtdruk
vv = zicht
rr = neerslag

Weerstations in de omgeving